FW7972 Weather Reports


time (UTC)temp
F
wind
direction
speed
knots
gust
knots
rain 1hr
in
rain 24hr
in
rain mn
in
humidity
%
barometer
mb
20260505185508 80 231 5.2 9.6 0.00 0.00 0.00 49 1018.1
20260505185004 81 194 1.7 1.7 0.00 0.00 0.00 51 1018.2
20260505184501 80 122 6.1 9.6 0.00 0.00 0.00 51 1018.1
20260505183957 80 213 7.0 8.7 0.00 0.00 0.00 50 1018.4
20260505183455 79 151 3.5 4.3 0.00 0.00 0.00 53 1018.1
20260505182951 80 156 3.5 4.3 0.00 0.00 0.00 51 1018.3
20260505182448 80 175 6.1 7.0 0.00 0.00 0.00 52 1018.5
20260505181944 79 111 4.3 5.2 0.00 0.00 0.00 52 1018.5
20260505181442 80 114 9.6 12.2 0.00 0.00 0.00 50 1018.4
20260505180938 80 182 3.5 5.2 0.00 0.00 0.00 50 1018.4
20260505180435 80 196 2.6 2.6 0.00 0.00 0.00 51 1018.4
20260505175932 79 206 4.3 5.2 0.00 0.00 0.00 52 1018.4
20260505175428 80 153 7.0 7.8 0.00 0.00 0.00 50 1018.6
20260505174924 79 186 4.3 7.8 0.00 0.00 0.00 54 1018.2
20260505174422 79 155 3.5 4.3 0.00 0.00 0.00 54 1018.5
20260505173918 80 194 4.3 5.2 0.00 0.00 0.00 53 1018.4
20260505173414 79 157 1.7 1.7 0.00 0.00 0.00 54 1018.7
20260505172911 79 153 5.2 6.1 0.00 0.00 0.00 54 1018.7
20260505172409 78 228 1.7 2.6 0.00 0.00 0.00 57 1018.7
20260505171909 78 98 4.3 6.1 0.00 0.00 0.00 57 1018.9
20260505171406 79 198 5.2 7.0 0.00 0.00 0.00 55 1018.8
20260505170902 79 249 3.5 5.2 0.00 0.00 0.00 55 1019.0
20260505170359 79 205 5.2 7.8 0.00 0.00 0.00 53 1019.3
20260505165855 78 201 2.6 2.6 0.00 0.00 0.00 56 1019.2
20260505165350 78 204 4.3 6.1 0.00 0.00 0.00 57 1019.5
20260505164846 78 184 6.1 7.8 0.00 0.00 0.00 57 1019.6
20260505164343 78 199 2.6 4.3 0.00 0.00 0.00 57 1019.3
20260505163841 78 142 4.3 5.2 0.00 0.00 0.00 58 1019.3
20260505163340 78 131 6.1 7.8 0.00 0.00 0.00 57 1019.3
20260505162838 78 117 3.5 4.3 0.00 0.00 0.00 57 1019.6
20260505162334 77 159 5.2 6.1 0.00 0.00 0.00 59 1019.7
20260505161831 77 159 3.5 5.2 0.00 0.00 0.00 58 1019.8
20260505161328 77 195 3.5 5.2 0.00 0.00 0.00 57 1019.7
20260505160825 77 155 6.1 7.0 0.00 0.00 0.00 56 1019.5
20260505160323 77 208 2.6 5.2 0.00 0.00 0.00 57 1019.7
20260505153302 76 176 5.2 6.1 0.00 0.00 0.00 62 1019.7
20260505152759 76 140 4.3 5.2 0.00 0.00 0.00 63 1019.9
20260505152255 75 225 0.9 2.6 0.00 0.00 0.00 63 1020.0
20260505151750 75 186 6.1 7.0 0.00 0.00 0.00 62 1020.0
20260505151248 74 143 4.3 5.2 0.00 0.00 0.00 62 1020.0
20260505150744 74 144 2.6 4.3 0.00 0.00 0.00 62 1019.9
20260505150241 73 195 4.3 6.1 0.00 0.00 0.00 65 1020.0
20260505140206 71 208 2.6 4.3 0.00 0.00 0.00 72 1019.9
20260505130130 65 177 2.6 2.6 0.00 0.00 0.00 84 1019.8
20260505124619 64 194 2.6 4.3 0.00 0.00 0.00 87 1020.0
20260505124115 63 177 1.7 1.7 0.00 0.00 0.00 90 1019.8
20260505123612 62 183 1.7 1.7 0.00 0.00 0.00 91 1019.7
20260505123108 61 176 2.6 4.3 0.00 0.00 0.00 93 1019.9
20260505122605 60 171 1.7 1.7 0.00 0.00 0.00 95 1019.6
20260505122102 59 169 1.7 1.7 0.00 0.00 0.00 96 1019.7
20260505121559 58 110 0.9 1.7 0.00 0.00 0.00 97 1019.6
20260505121056 57 155 4.3 5.2 0.00 0.00 0.00 98 1019.6
20260505120552 56 200 1.7 1.7 0.00 0.00 0.00 98 1019.6
20260505120048 56 204 0.0 0.0 0.00 0.00 0.00 98 1019.5
20260505115542 55 206 0.9 0.9 0.00 0.00 0.00 99 1019.6
20260505115040 55 203 0.0 0.9 0.00 0.00 0.00 99 1019.5
20260505114537 54 207 0.9 0.9 0.00 0.00 0.00 99 1019.5
20260505114033 53 199 0.9 0.9 0.00 0.00 0.00 99 1019.5
20260505113530 53 193 0.9 0.9 0.00 0.00 0.00 99 1019.6
20260505113026 52 205 0.9 0.9 0.00 0.00 0.00 98 1019.5
20260505112522 51 206 0.0 0.0 0.00 0.00 0.00 98 1019.3
20260505112021 51 206 0.0 0.0 0.00 0.00 0.00 98 1019.5
20260505111520 50 206 0.0 0.0 0.00 0.00 0.00 98 1019.2
20260505111017 50 206 0.0 0.0 0.00 0.00 0.00 98 1019.1
20260505110513 50 206 0.0 0.0 0.00 0.00 0.00 98 1019.3
20260505101945 49 206 0.0 0.0 0.00 0.00 0.00 96 1018.7
20260505101444 49 206 0.0 0.0 0.00 0.00 0.00 96 1018.7
20260505100940 49 206 0.0 0.0 0.00 0.00 0.00 96 1018.6
20260505100437 48 206 0.0 0.0 0.00 0.00 0.00 96 1018.6
20260505095933 48 206 0.0 0.0 0.00 0.00 0.00 96 1018.6
20260505095430 48 206 0.0 0.0 0.00 0.00 0.00 96 1018.6
20260505094926 49 206 0.0 0.0 0.00 0.00 0.00 96 1018.7
20260505094423 49 206 0.0 0.0 0.00 0.00 0.00 95 1018.6
20260505093919 49 206 0.0 0.0 0.00 0.00 0.00 95 1018.6
20260505093416 49 206 0.0 0.0 0.00 0.00 0.00 95 1018.8
20260505092914 49 206 0.0 0.0 0.00 0.00 0.00 95 1018.6
20260505092412 49 206 0.0 0.0 0.00 0.00 0.00 95 1018.4
20260505091909 50 206 0.0 0.0 0.00 0.00 0.00 95 1018.2
20260505091406 49 206 0.0 0.0 0.00 0.00 0.00 95 1018.6
20260505090904 50 206 0.0 0.0 0.00 0.00 0.00 95 1018.4
20260505090402 50 206 0.0 0.0 0.00 0.00 0.00 95 1018.4
20260505085859 50 206 0.0 0.0 0.00 0.00 0.00 95 1018.5
20260505085357 50 206 0.0 0.0 0.00 0.00 0.00 94 1018.2
20260505084855 50 206 0.0 0.0 0.00 0.00 0.00 94 1018.1
20260505084353 51 206 0.0 0.0 0.00 0.00 0.00 94 1018.1
20260505083850 51 206 0.0 0.0 0.00 0.00 0.00 94 1018.1
20260505083348 51 206 0.0 0.0 0.00 0.00 0.00 94 1018.2
20260505082844 51 206 0.0 0.0 0.00 0.00 0.00 94 1018.1
20260505082340 51 206 0.0 0.0 0.00 0.00 0.00 93 1018.1
20260505081836 51 206 0.0 0.0 0.00 0.00 0.00 93 1018.0
20260505081333 51 206 0.0 0.0 0.00 0.00 0.00 93 1018.0
20260505080830 51 206 0.0 0.0 0.00 0.00 0.00 92 1017.9
20260505080326 51 206 0.0 0.0 0.00 0.00 0.00 92 1017.8
20260505075821 52 206 0.0 0.0 0.00 0.00 0.00 92 1017.8
20260505075319 52 206 0.0 0.0 0.00 0.00 0.00 92 1017.9
20260505074816 52 206 0.0 0.0 0.00 0.00 0.00 92 1017.8
20260505074313 53 206 0.0 0.0 0.00 0.00 0.00 92 1017.8
20260505073810 53 206 0.0 0.0 0.00 0.00 0.00 91 1017.8
20260505073308 53 206 0.0 0.0 0.00 0.00 0.00 91 1018.0
20260505072805 53 206 0.0 0.0 0.00 0.00 0.00 91 1017.6
20260505072301 53 206 0.0 0.0 0.00 0.00 0.00 91 1017.9
20260505071757 54 206 0.0 0.0 0.00 0.00 0.00 91 1017.7
20260505071253 54 205 0.0 0.0 0.00 0.00 0.00 91 1017.9
20260505070751 54 205 0.9 0.9 0.00 0.00 0.00 90 1017.7
20260505070248 54 205 0.9 0.9 0.00 0.00 0.00 90 1018.0
20260505065743 54 206 0.0 0.0 0.00 0.00 0.00 89 1017.9
20260505065240 54 206 0.0 0.0 0.00 0.00 0.00 89 1018.0
20260505064737 54 206 0.0 0.0 0.00 0.00 0.00 89 1018.0
20260505064235 55 206 0.0 0.0 0.00 0.00 0.00 88 1018.0
20260505063732 55 206 0.0 0.0 0.00 0.00 0.00 88 1018.0
20260505063228 55 206 0.0 0.0 0.00 0.00 0.00 87 1017.8
20260505062725 55 206 0.0 0.0 0.00 0.00 0.00 87 1018.3
20260505062223 56 206 0.0 0.0 0.00 0.00 0.00 87 1018.2
20260505061719 56 206 0.0 0.0 0.00 0.00 0.00 86 1018.0
20260505061217 56 206 0.0 0.0 0.00 0.00 0.00 86 1018.1
20260505060714 57 206 0.9 0.9 0.00 0.00 0.00 85 1018.3
20260505060211 57 206 0.9 0.9 0.00 0.00 0.00 85 1018.4
20260505055707 57 206 0.0 0.0 0.00 0.00 0.00 84 1018.3
20260505055203 57 206 0.0 0.0 0.00 0.00 0.00 84 1018.2
20260505054700 57 206 0.0 0.0 0.00 0.00 0.00 83 1018.2
20260505054158 58 206 0.9 0.9 0.00 0.00 0.00 82 1018.5
20260505053656 58 206 0.0 0.9 0.00 0.00 0.00 82 1018.3
20260505053152 59 206 0.9 0.9 0.00 0.00 0.00 81 1018.4
20260505052649 59 203 0.9 1.7 0.00 0.00 0.00 81 1018.6
20260505052147 59 203 0.9 0.9 0.00 0.00 0.00 81 1018.5
20260505051643 59 206 0.9 0.9 0.00 0.00 0.00 80 1018.7
20260505051142 59 201 0.9 1.7 0.00 0.00 0.00 80 1018.6
20260505050639 59 207 0.9 1.7 0.00 0.00 0.00 80 1018.8
20260505050137 59 212 0.9 0.9 0.00 0.00 0.00 79 1018.7
20260505041607 61 204 0.9 0.9 0.00 0.00 0.00 77 1018.5
20260505041104 61 209 0.9 1.7 0.00 0.00 0.00 76 1018.9
20260505040601 61 198 1.7 1.7 0.00 0.00 0.00 76 1018.7
20260505040058 62 203 2.6 2.6 0.00 0.00 0.00 75 1018.7
20260505035555 62 194 1.7 1.7 0.00 0.00 0.00 75 1018.4
20260505035051 62 205 1.7 1.7 0.00 0.00 0.00 75 1018.6
20260505034548 62 204 0.9 1.7 0.00 0.00 0.00 74 1018.7
20260505034045 62 199 1.7 2.6 0.00 0.00 0.00 74 1018.8
20260505033542 63 201 1.7 1.7 0.00 0.00 0.00 73 1018.8
20260505033040 63 199 1.7 2.6 0.00 0.00 0.00 73 1018.7
20260505032538 63 188 2.6 2.6 0.00 0.00 0.00 72 1018.7
20260505032034 63 193 3.5 4.3 0.00 0.00 0.00 72 1018.6
20260505031531 64 197 3.5 4.3 0.00 0.00 0.00 72 1018.8
20260505031027 64 189 3.5 4.3 0.00 0.00 0.00 72 1018.6
20260505030524 64 192 2.6 2.6 0.00 0.00 0.00 71 1018.7
20260505030020 64 190 2.6 2.6 0.00 0.00 0.00 71 1018.7
20260505025516 64 193 2.6 4.3 0.00 0.00 0.00 71 1018.7
20260505025016 64 188 2.6 2.6 0.00 0.00 0.00 71 1018.7
20260505024512 64 206 2.6 2.6 0.00 0.00 0.00 70 1018.7
20260505024009 65 202 4.3 5.2 0.00 0.00 0.00 70 1018.5
20260505023506 65 185 2.6 2.6 0.00 0.00 0.00 70 1018.5
20260505023004 65 161 2.6 2.6 0.00 0.00 0.00 70 1018.8
20260505022501 65 204 0.9 1.7 0.00 0.00 0.00 70 1018.5
20260505021958 66 189 2.6 2.6 0.00 0.00 0.00 70 1018.6
20260505021454 66 211 2.6 2.6 0.00 0.00 0.00 69 1018.7
20260505020950 66 190 1.7 1.7 0.00 0.00 0.00 68 1018.7
20260505020445 66 187 2.6 2.6 0.00 0.00 0.00 68 1018.5
20260505015943 66 121 2.6 2.6 0.00 0.00 0.00 68 1018.5
20260505015440 67 156 4.3 5.2 0.00 0.00 0.00 67 1018.6
20260505014937 67 185 1.7 2.6 0.00 0.00 0.00 67 1018.4
20260505014434 67 213 1.7 1.7 0.00 0.00 0.00 66 1018.4
20260505013931 68 183 2.6 2.6 0.00 0.00 0.00 66 1018.2
20260505013428 68 157 4.3 6.1 0.00 0.00 0.00 66 1018.2
20260505012926 68 197 2.6 4.3 0.00 0.00 0.00 65 1018.4
20260505012424 68 185 1.7 1.7 0.00 0.00 0.00 65 1017.8
20260505011919 68 177 4.3 5.2 0.00 0.00 0.00 64 1018.1
20260505011416 68 189 2.6 4.3 0.00 0.00 0.00 64 1017.9
20260505010913 69 200 1.7 2.6 0.00 0.00 0.00 63 1017.8
20260505010409 69 197 4.3 5.2 0.00 0.00 0.00 62 1017.7
20260505005904 69 188 2.6 4.3 0.00 0.00 0.00 62 1017.6
20260505005402 69 167 2.6 4.3 0.00 0.00 0.00 62 1017.7
20260505004859 69 205 1.7 2.6 0.00 0.00 0.00 61 1017.5
20260505004355 70 184 6.1 7.0 0.00 0.00 0.00 60 1017.5
20260505003853 70 196 2.6 4.3 0.00 0.00 0.00 60 1017.5
20260505003350 70 233 2.6 2.6 0.00 0.00 0.00 59 1017.3
20260505002845 70 190 6.1 7.8 0.00 0.00 0.00 59 1017.3
20260505002342 70 185 4.3 5.2 0.00 0.00 0.00 58 1017.1
20260505001841 69 155 3.5 5.2 0.00 0.00 0.00 58 1017.3
20260505001338 70 210 0.9 0.9 0.00 0.00 0.00 57 1017.1
20260505000835 70 209 0.9 0.9 0.00 0.00 0.00 55 1017.0
20260505000333 71 213 0.0 0.0 0.00 0.00 0.00 52 1016.9
20260504235829 72 213 0.0 0.9 0.00 0.00 0.00 51 1017.1
20260504235326 72 212 0.9 0.9 0.00 0.00 0.00 49 1016.6
20260504234823 73 205 0.9 1.7 0.00 0.00 0.00 48 1016.8
20260504234321 73 208 0.0 0.9 0.00 0.00 0.00 47 1016.6
20260504233817 73 209 1.7 1.7 0.00 0.00 0.00 47 1016.7
20260504233313 73 209 0.9 0.9 0.00 0.00 0.00 46 1016.6
20260504232809 74 198 3.5 4.3 0.00 0.00 0.00 45 1016.7
20260504232307 74 204 3.5 4.3 0.00 0.00 0.00 45 1016.7
20260504231804 75 160 2.6 2.6 0.00 0.00 0.00 45 1016.7
20260504231300 75 185 2.6 2.6 0.00 0.00 0.00 43 1016.7
20260504230756 75 202 5.2 6.1 0.00 0.00 0.00 43 1016.7
20260504230254 75 201 2.6 4.3 0.00 0.00 0.00 43 1016.8
20260504225753 75 181 4.3 6.1 0.00 0.00 0.00 43 1016.7
20260504225249 75 207 4.3 6.1 0.00 0.00 0.00 44 1016.8
20260504224746 76 220 1.7 1.7 0.00 0.00 0.00 43 1016.8
20260504224243 76 202 4.3 6.1 0.00 0.00 0.00 42 1016.5
20260504223739 77 198 6.1 7.8 0.00 0.00 0.00 42 1016.8
20260504223235 77 222 2.6 4.3 0.00 0.00 0.00 42 1016.6
20260504222732 77 203 6.1 7.0 0.00 0.00 0.00 41 1016.6
20260504222229 77 200 3.5 6.1 0.00 0.00 0.00 41 1016.7
20260504221727 78 162 4.3 5.2 0.00 0.00 0.00 41 1016.6
20260504221224 78 157 4.3 6.1 0.00 0.00 0.00 42 1016.5
20260504220720 78 189 2.6 4.3 0.00 0.00 0.00 42 1016.6
20260504220218 78 178 4.3 7.0 0.00 0.00 0.00 42 1016.7
20260504215714 78 250 6.1 7.0 0.00 0.00 0.00 42 1016.7
20260504215211 78 138 4.3 5.2 0.00 0.00 0.00 42 1016.6
20260504214707 78 230 2.6 2.6 0.00 0.00 0.00 42 1016.5
20260504214204 79 205 4.3 6.1 0.00 0.00 0.00 40 1016.5
20260504213700 79 190 2.6 4.3 0.00 0.00 0.00 41 1016.5
20260504213157 79 202 5.2 7.8 0.00 0.00 0.00 40 1016.5
20260504212654 79 211 2.6 2.6 0.00 0.00 0.00 39 1016.4
20260504212150 79 202 5.2 7.0 0.00 0.00 0.00 38 1016.4
20260504211648 79 187 4.3 6.1 0.00 0.00 0.00 38 1016.4
20260504211144 79 205 3.5 4.3 0.00 0.00 0.00 38 1016.5
20260504210642 79 127 5.2 7.0 0.00 0.00 0.00 38 1016.5
20260504210138 79 221 1.7 1.7 0.00 0.00 0.00 38 1016.5
20260504205636 80 154 7.8 8.7 0.00 0.00 0.00 38 1016.7
20260504205133 78 200 2.6 2.6 0.00 0.00 0.00 40 1016.6
20260504204631 78 149 4.3 5.2 0.00 0.00 0.00 40 1016.6
20260504204130 79 177 4.3 6.1 0.00 0.00 0.00 39 1016.8
20260504203628 79 143 3.5 4.3 0.00 0.00 0.00 40 1016.8
20260504203125 79 211 3.5 4.3 0.00 0.00 0.00 40 1016.8
20260504202625 79 184 5.2 6.1 0.00 0.00 0.00 40 1016.7
20260504202123 79 147 3.5 5.2 0.00 0.00 0.00 39 1016.9
20260504201620 79 148 4.3 5.2 0.00 0.00 0.00 39 1017.1
20260504201118 79 222 2.6 4.3 0.00 0.00 0.00 41 1017.0
20260504200614 79 221 4.3 5.2 0.00 0.00 0.00 42 1017.2
20260504200110 78 163 3.5 4.3 0.00 0.00 0.00 41 1017.4
20260504195607 78 189 3.5 5.2 0.00 0.00 0.00 41 1017.2
20260504195103 79 152 4.3 6.1 0.00 0.00 0.00 41 1017.3
20260504194600 79 211 2.6 2.6 0.00 0.00 0.00 41 1017.3
20260504194055 79 195 4.3 5.2 0.00 0.00 0.00 41 1017.4
20260504193552 78 209 2.6 4.3 0.00 0.00 0.00 42 1017.3
20260504193051 78 163 7.8 7.8 0.00 0.00 0.00 42 1017.4
20260504192549 78 104 10.4 13.0 0.00 0.00 0.00 41 1017.6
20260504192046 78 110 6.1 7.8 0.00 0.00 0.00 41 1017.5
20260504191544 78 152 5.2 6.1 0.00 0.00 0.00 39 1017.5
20260504191040 78 216 3.5 5.2 0.00 0.00 0.00 40 1017.9
20260504190537 78 181 4.3 6.1 0.00 0.00 0.00 41 1017.8
20260504190032 78 185 3.5 4.3 0.00 0.00 0.00 40 1017.9